Location: Dziadowski
(50.3833°N, 20.0333°E)
Time: 19:10:52
(UTC+00:00)

CBERS-1 - Pass Details

Date: 18 January 2026
Orbit: 765 x 772 km, 98.9° (Epoch: 18 February)

Event Time Altitude Azimuth Distance (km) Brightness Sun altitude
Rises 05:05:35 0° 14° (NNE) 3,246 7.2 -13.3°
Reaches altitude 10° 05:07:54 10° 14° (NNE) 2,316 6.5 -13.0°
Maximum altitude 05:13:01 81° 288° (WNW) 782 3.9 -12.2°
Drops below altitude 10° 05:18:05 10° 201° (SSW) 2,301 6.5 -11.4°
Sets 05:20:22 0° 201° (SSW) 3,224 7.2 -11.1°
